TimeCST,TemperatureF,Dew PointF,Humidity,Sea Level PressureIn,VisibilityMPH,Wind Direction,Wind SpeedMPH,Gust SpeedMPH,PrecipitationIn,Events,Conditions,WindDirDegrees,DateUTC
12:15 AM,19.4,19.4,100,29.99,2.0,East,4.6,-,N/A,,Overcast,90,2013-02-26 06:15:00
12:35 AM,21.2,19.4,93,29.99,1.5,NE,4.6,-,N/A,,Overcast,40,2013-02-26 06:35:00
12:55 AM,21.2,19.4,93,29.98,1.5,NNE,3.5,-,N/A,,Overcast,30,2013-02-26 06:55:00
1:15 AM,21.2,19.4,93,29.97,1.2,NNE,4.6,-,N/A,,Overcast,30,2013-02-26 07:15:00
1:35 AM,21.2,19.4,93,29.96,1.0,NE,5.8,-,N/A,,Overcast,40,2013-02-26 07:35:00
1:55 AM,21.2,21.2,100,29.97,1.2,ENE,4.6,-,N/A,,Overcast,70,2013-02-26 07:55:00
2:15 AM,21.2,21.2,100,29.95,1.5,NE,8.1,-,N/A,,Overcast,40,2013-02-26 08:15:00
2:35 AM,21.2,21.2,100,29.95,2.0,NE,6.9,-,N/A,,Overcast,50,2013-02-26 08:35:00
2:55 AM,21.2,21.2,100,29.95,2.0,NNE,3.5,-,N/A,,Overcast,20,2013-02-26 08:55:00
3:15 AM,23.0,21.2,93,29.95,1.8,NE,8.1,-,N/A,,Overcast,40,2013-02-26 09:15:00
3:35 AM,21.2,21.2,100,29.93,1.0,NNE,8.1,-,N/A,,Overcast,20,2013-02-26 09:35:00
3:55 AM,21.2,19.4,93,29.92,1.2,NNE,9.2,-,N/A,,Overcast,20,2013-02-26 09:55:00
4:15 AM,21.2,19.4,93,29.91,1.2,NNE,8.1,-,N/A,,Overcast,20,2013-02-26 10:15:00
4:35 AM,21.2,19.4,93,29.91,1.2,NNE,6.9,-,N/A,,Overcast,20,2013-02-26 10:35:00
4:55 AM,21.2,19.4,93,29.92,3.0,NNE,9.2,-,N/A,,Overcast,30,2013-02-26 10:55:00
5:15 AM,19.4,17.6,93,29.91,3.0,NNE,8.1,-,N/A,,Overcast,30,2013-02-26 11:15:00
5:35 AM,19.4,19.4,100,29.92,3.0,NNE,6.9,-,N/A,,Overcast,30,2013-02-26 11:35:00
6:15 AM,21.2,19.4,93,29.92,3.0,NE,4.6,-,N/A,,Overcast,50,2013-02-26 12:15:00
6:35 AM,21.2,19.4,93,29.92,2.5,NNE,4.6,-,N/A,,Overcast,30,2013-02-26 12:35:00
6:55 AM,21.2,19.4,93,29.91,2.5,North,5.8,-,N/A,,Overcast,10,2013-02-26 12:55:00
7:15 AM,21.2,19.4,93,29.91,2.5,North,5.8,-,N/A,,Overcast,10,2013-02-26 13:15:00
7:35 AM,21.2,21.2,100,29.91,2.5,NNE,4.6,-,N/A,,Overcast,20,2013-02-26 13:35:00
7:55 AM,23.0,21.2,93,29.90,2.5,NNE,4.6,-,N/A,,Overcast,20,2013-02-26 13:55:00
8:15 AM,23.0,21.2,93,29.91,2.5,NE,6.9,-,N/A,,Overcast,50,2013-02-26 14:15:00
8:35 AM,24.8,23.0,93,29.91,1.5,NE,8.1,-,N/A,,Overcast,40,2013-02-26 14:35:00
8:55 AM,24.8,23.0,93,29.92,1.5,NE,6.9,-,N/A,,Overcast,40,2013-02-26 14:55:00
9:15 AM,24.8,23.0,93,29.92,1.2,NNE,4.6,-,N/A,,Overcast,30,2013-02-26 15:15:00
9:35 AM,24.8,23.0,93,29.92,1.0,NE,8.1,-,N/A,,Overcast,40,2013-02-26 15:35:00
9:55 AM,26.6,24.8,93,29.92,1.5,NNE,6.9,-,N/A,,Overcast,30,2013-02-26 15:55:00
10:15 AM,26.6,24.8,93,29.92,1.5,NNE,10.4,-,N/A,,Overcast,30,2013-02-26 16:15:00
10:35 AM,26.6,24.8,93,29.92,2.0,NE,11.5,-,N/A,,Overcast,40,2013-02-26 16:35:00
10:55 AM,26.6,26.6,100,29.91,2.5,NNE,8.1,-,N/A,,Overcast,30,2013-02-26 16:55:00
11:15 AM,28.4,24.8,86,29.91,2.5,NNE,9.2,-,N/A,,Overcast,30,2013-02-26 17:15:00
11:35 AM,28.4,24.8,86,29.91,3.0,NNE,11.5,-,N/A,,Overcast,20,2013-02-26 17:35:00
11:55 AM,28.4,24.8,86,29.90,3.0,NNE,12.7,-,N/A,,Scattered Clouds,30,2013-02-26 17:55:00
12:15 PM,28.4,24.8,86,29.90,3.0,NNE,11.5,16.1,N/A,,Haze,20,2013-02-26 18:15:00
12:35 PM,30.2,24.8,80,29.89,3.0,NNE,9.2,-,N/A,,Haze,20,2013-02-26 18:35:00
12:55 PM,30.2,24.8,80,29.88,3.0,NNE,9.2,-,N/A,,Haze,20,2013-02-26 18:55:00
1:15 PM,30.2,24.8,80,29.86,4.0,NNE,10.4,-,N/A,,Haze,20,2013-02-26 19:15:00
1:35 PM,30.2,24.8,80,29.85,4.0,NNE,11.5,17.3,N/A,,Haze,20,2013-02-26 19:35:00
1:55 PM,32.0,26.6,80,29.85,4.0,NNE,10.4,-,N/A,,Haze,30,2013-02-26 19:55:00
2:15 PM,32.0,24.8,75,29.84,5.0,NNE,13.8,18.4,N/A,,Haze,20,2013-02-26 20:15:00
2:35 PM,32.0,26.6,80,29.84,4.0,NNE,9.2,17.3,N/A,,Haze,20,2013-02-26 20:35:00
2:55 PM,32.0,24.8,75,29.84,4.0,NNE,12.7,-,N/A,,Haze,20,2013-02-26 20:55:00
3:15 PM,30.2,24.8,80,29.84,4.0,North,11.5,17.3,N/A,,Haze,10,2013-02-26 21:15:00
3:35 PM,30.2,24.8,80,29.84,5.0,NNE,12.7,17.3,N/A,,Haze,20,2013-02-26 21:35:00
3:55 PM,30.2,24.8,80,29.85,5.0,NNE,12.7,-,N/A,,Haze,20,2013-02-26 21:55:00
4:15 PM,30.2,24.8,80,29.85,5.0,NNE,11.5,17.3,N/A,,Haze,20,2013-02-26 22:15:00
4:35 PM,30.2,24.8,80,29.86,4.0,North,8.1,-,N/A,,Haze,10,2013-02-26 22:35:00
4:55 PM,30.2,24.8,80,29.86,4.0,North,8.1,-,N/A,,Haze,360,2013-02-26 22:55:00
5:15 PM,30.2,24.8,80,29.87,4.0,North,10.4,-,N/A,,Haze,10,2013-02-26 23:15:00
5:35 PM,28.4,24.8,86,29.87,4.0,NNE,8.1,-,N/A,,Clear,20,2013-02-26 23:35:00
5:55 PM,28.4,24.8,86,29.88,5.0,North,8.1,-,N/A,,Scattered Clouds,360,2013-02-26 23:55:00
6:15 PM,28.4,24.8,86,29.89,5.0,North,8.1,-,N/A,,Haze,360,2013-02-27 00:15:00
6:35 PM,28.4,24.8,86,29.90,5.0,North,10.4,-,N/A,,Haze,10,2013-02-27 00:35:00
6:55 PM,28.4,24.8,86,29.91,5.0,North,9.2,-,N/A,,Overcast,10,2013-02-27 00:55:00
7:15 PM,28.4,23.0,80,29.92,5.0,North,9.2,16.1,N/A,,Haze,360,2013-02-27 01:15:00
7:35 PM,28.4,23.0,80,29.93,5.0,North,11.5,16.1,N/A,,Haze,360,2013-02-27 01:35:00
7:55 PM,28.4,23.0,80,29.93,5.0,North,10.4,-,N/A,,Haze,360,2013-02-27 01:55:00
8:15 PM,26.6,21.2,80,29.93,5.0,North,12.7,17.3,N/A,,Haze,360,2013-02-27 02:15:00
8:35 PM,26.6,21.2,80,29.93,5.0,NNE,11.5,-,N/A,,Haze,20,2013-02-27 02:35:00
8:55 PM,26.6,21.2,80,29.94,5.0,NNE,10.4,-,N/A,,Overcast,20,2013-02-27 02:55:00
9:15 PM,26.6,21.2,80,29.93,7.0,North,11.5,17.3,N/A,,Overcast,360,2013-02-27 03:15:00
9:35 PM,26.6,21.2,80,29.93,5.0,North,10.4,-,N/A,,Overcast,360,2013-02-27 03:35:00
9:55 PM,26.6,21.2,80,29.93,5.0,North,10.4,-,N/A,,Overcast,360,2013-02-27 03:55:00
10:15 PM,26.6,21.2,80,29.93,5.0,North,9.2,-,N/A,,Overcast,350,2013-02-27 04:15:00
10:55 PM,24.8,21.2,86,29.93,5.0,North,4.6,-,N/A,,Mostly Cloudy,350,2013-02-27 04:55:00
11:15 PM,24.8,21.2,86,29.93,5.0,North,5.8,-,N/A,,Mostly Cloudy,350,2013-02-27 05:15:00
11:35 PM,24.8,21.2,86,29.93,5.0,NNW,8.1,-,N/A,,Scattered Clouds,340,2013-02-27 05:35:00
11:55 PM,24.8,21.2,86,29.93,5.0,NNW,8.1,-,N/A,,Mostly Cloudy,330,2013-02-27 05:55:00